QPF
0.00 0.00 0.00 0.01 0.02 0.01 0.00 0.00 0.00 0.00 0.00 0.00 0.00 0.00 0.00 0.00 0.00 0.00 0.01 0.01 0.01 0.02 0.03 0.03 0.03 0.02 0.01 0.00 0.00 0.00 0.00 0.00 0.00 0.00 0.00 0.00 0.00 0.01 0.03 0.03 0.02 0.01 0.01
0.00 0.00 0.00 0.00 0.01 0.01 0.00 0.00 0.00 0.00 0.00 0.00 0.00 0.00 0.00 0.00 0.00 0.01 0.01 0.01 0.02 0.02 0.02 0.02 0.02 0.01 0.00 0.00 0.00 0.00 0.00 0.00 0.00 0.00 0.00 0.00 0.00 0.00 0.02 0.02 0.01 0.02 0.02
0.00 0.00 0.00 0.00 0.00 0.00 0.00 0.00 0.00 0.00 0.00 0.00 0.00 0.00 0.00 0.00 0.00 0.00 0.01 0.01 0.02 0.02 0.02 0.01 0.00 0.00 0.00 0.00 0.00 0.00 0.00 0.00 0.00 0.00 0.01 0.00 0.00 0.01 0.04 0.03 0.01 0.01 0.02
0.00 0.00 0.00 0.00 0.00 0.01 0.00 0.00 0.00 0.00 0.00 0.00 0.00 0.00 0.00 0.00 0.00 0.00 0.00 0.00 0.01 0.01 0.01 0.00 0.00 0.00 0.00 0.00 0.00 0.00 0.00 0.00 0.00 0.01 0.03 0.01 0.00 0.03 0.06 0.06 0.04 0.02 0.01
0.00 0.00 0.00 0.00 0.01 0.01 0.01 0.00 0.00 0.00 0.00 0.00 0.00 0.00 0.00 0.00 0.00 0.00 0.00 0.00 0.01 0.01 0.01 0.01 0.00 0.00 0.00 0.00 0.00 0.00 0.00 0.00 0.01 0.02 0.03 0.03 0.01 0.03 0.05 0.05 0.05 0.05 0.02
0.00 0.00 0.00 0.00 0.00 0.01 0.00 0.00 0.00 0.00 0.00 0.00 0.00 0.00 0.00 0.00 0.00 0.00 0.00 0.00 0.00 0.01 0.01 0.02 0.01 0.00 0.00 0.00 0.00 0.00 0.00 0.00 0.01 0.01 0.02 0.02 0.01 0.02 0.04 0.04 0.05 0.06 0.04
0.00 0.00 0.00 0.00 0.00 0.00 0.00 0.00 0.00 0.00 0.00 0.00 0.00 0.00 0.00 0.00 0.00 0.00 0.00 0.00 0.01 0.01 0.01 0.01 0.01 0.00 0.00 0.00 0.00 0.00 0.00 0.00 0.00 0.00 0.01 0.02 0.01 0.01 0.02 0.04 0.05 0.05 0.04
0.00 0.00 0.00 0.00 0.00 0.00 0.00 0.00 0.00 0.00 0.00 0.00 0.00 0.00 0.00 0.00 0.00 0.00 0.00 0.00 0.01 0.02 0.01 0.01 0.00 0.00 0.00 0.00 0.00 0.00 0.00 0.00 0.00 0.00 0.01 0.00 0.00 0.00 0.01 0.01 0.02 0.03 0.03
0.00 0.00 0.00 0.00 0.00 0.00 0.00 0.00 0.00 0.00 0.00 0.00 0.00 0.00 0.00 0.00 0.00 0.00 0.01 0.00 0.01 0.02 0.01 0.01 0.00 0.00 0.00 0.00 0.00 0.00 0.00 0.00 0.00 0.00 0.00 0.00 0.00 0.00 0.00 0.00 0.00 0.01 0.01
0.00 0.00 0.00 0.00 0.00 0.00 0.00 0.00 0.00 0.00 0.00 0.00 0.00 0.00 0.00 0.00 0.00 0.01 0.00 0.00 0.01 0.01 0.01 0.01 0.00 0.00 0.00 0.00 0.00 0.00 0.00 0.00 0.00 0.00 0.00 0.00 0.00 0.00 0.00 0.00 0.00 0.00 0.00
0.00 0.00 0.00 0.00 0.00 0.00 0.00 0.00 0.00 0.00 0.00 0.00 0.00 0.00 0.00 0.00 0.00 0.00 0.00 0.00 0.01 0.01 0.01 0.00 0.00 0.00 0.00 0.00 0.00 0.00 0.00 0.00 0.00 0.00 0.00 0.00 0.00 0.00 0.00 0.00 0.00 0.00 0.00
0.00 0.00 0.00 0.00 0.00 0.00 0.00 0.00 0.00 0.00 0.00 0.00 0.00 0.00 0.00 0.00 0.00 0.00 0.00 0.00 0.00 0.00 0.00 0.00 0.00 0.00 0.00 0.00 0.00 0.00 0.00 0.00 0.00 0.00 0.00 0.00 0.00 0.00 0.00 0.00 0.00 0.00 0.00
0.00 0.00 0.00 0.00 0.00 0.00 0.00 0.00 0.00 0.00 0.00 0.00 0.00 0.00 0.00 0.00 0.00 0.00 0.00 0.00 0.00 0.00 0.00 0.00 0.00 0.00 0.00 0.00 0.00 0.00 0.00 0.00 0.00 0.00 0.00 0.00 0.00 0.00 0.00 0.00 0.00 0.00 0.00
0.00 0.00 0.00 0.00 0.00 0.00 0.00 0.00 0.00 0.00 0.00 0.00 0.00 0.00 0.00 0.00 0.00 0.00 0.00 0.00 0.00 0.00 0.00 0.00 0.00 0.00 0.00 0.00 0.00 0.00 0.00 0.00 0.00 0.00 0.00 0.00 0.01 0.02 0.02 0.01 0.01 0.01 0.01
0.00 0.00 0.00 0.00 0.00 0.00 0.00 0.00 0.00 0.00 0.00 0.00 0.00 0.00 0.00 0.00 0.00 0.00 0.00 0.00 0.00 0.00 0.00 0.00 0.00 0.00 0.00 0.00 0.00 0.00 0.00 0.00 0.00 0.00 0.00 0.01 0.02 0.02 0.03 0.03 0.02 0.03 0.03
0.00 0.00 0.00 0.00 0.00 0.00 0.00 0.00 0.00 0.00 0.00 0.00 0.00 0.00 0.00 0.00 0.00 0.00 0.00 0.00 0.00 0.00 0.00 0.00 0.00 0.00 0.00 0.00 0.00 0.00 0.00 0.00 0.00 0.00 0.00 0.00 0.01 0.01 0.01 0.02 0.02 0.03 0.03
0.00 0.00 0.00 0.00 0.00 0.00 0.00 0.00 0.00 0.00 0.00 0.00 0.00 0.00 0.00 0.00 0.00 0.00 0.00 0.01 0.01 0.01 0.01 0.00 0.00 0.00 0.00 0.00 0.00 0.00 0.00 0.00 0.00 0.00 0.00 0.00 0.00 0.00 0.00 0.01 0.01 0.01 0.01
0.00 0.00 0.00 0.00 0.00 0.00 0.00 0.00 0.00 0.00 0.00 0.00 0.00 0.00 0.00 0.00 0.00 0.01 0.02 0.04 0.04 0.03 0.03 0.02 0.02 0.02 0.01 0.01 0.01 0.00 0.00 0.00 0.00 0.00 0.00 0.00 0.00 0.00 0.00 0.00 0.00 0.00 0.01
0.00 0.00 0.00 0.00 0.00 0.01 0.01 0.00 0.00 0.00 0.01 0.01 0.01 0.01 0.01 0.01 0.02 0.03 0.05 0.07 0.08 0.09 0.09 0.08 0.07 0.05 0.04 0.03 0.01 0.01 0.00 0.00 0.00 0.00 0.00 0.00 0.00 0.00 0.00 0.00 0.00 0.00 0.00
0.00 0.00 0.00 0.00 0.01 0.01 0.01 0.01 0.02 0.04 0.06 0.06 0.05 0.06 0.06 0.08 0.11 0.13 0.14 0.15 0.15 0.13 0.12 0.10 0.08 0.06 0.04 0.02 0.01 0.00 0.00 0.00 0.00 0.00 0.00 0.00 0.00 0.00 0.00 0.00 0.00 0.00 0.00
0.00 0.01 0.00 0.01 0.02 0.04 0.05 0.09 0.14 0.18 0.18 0.16 0.15 0.18 0.24 0.32 0.33 0.31 0.29 0.26 0.23 0.18 0.14 0.10 0.06 0.03 0.02 0.01 0.00 0.00 0.00 0.00 0.00 0.00 0.00 0.00 0.00 0.00 0.00 0.00 0.00 0.00 0.00
0.01 0.01 0.01 0.02 0.06 0.13 0.21 0.31 0.37 0.37 0.33 0.29 0.31 0.38 0.47 0.52 0.49 0.46 0.43 0.38 0.31 0.21 0.14 0.08 0.04 0.02 0.00 0.00 0.00 0.00 0.00 0.00 0.00 0.00 0.00 0.00 0.00 0.00 0.00 0.00 0.00 0.00 0.00
0.01 0.01 0.02 0.05 0.13 0.29 0.44 0.57 0.59 0.54 0.47 0.42 0.43 0.49 0.56 0.59 0.58 0.55 0.45 0.33 0.21 0.12 0.07 0.04 0.01 0.00 0.00 0.00 0.00 0.00 0.00 0.00 0.00 0.00 0.00 0.00 0.00 0.00 0.00 0.00 0.00 0.00 0.00
0.01 0.03 0.04 0.08 0.24 0.45 0.59 0.72 0.76 0.70 0.62 0.59 0.59 0.61 0.62 0.60 0.54 0.41 0.26 0.15 0.08 0.05 0.04 0.02 0.00 0.00 0.00 0.00 0.00 0.00 0.00 0.00 0.00 0.00 0.00 0.00 0.00 0.00 0.00 0.00 0.00 0.00 0.00
0.03 0.04 0.05 0.14 0.35 0.58 0.73 0.85 0.86 0.83 0.77 0.69 0.64 0.63 0.58 0.47 0.31 0.17 0.09 0.06 0.04 0.02 0.01 0.00 0.00 0.00 0.00 0.00 0.00 0.00 0.00 0.00 0.00 0.00 0.00 0.00 0.00 0.00 0.00 0.00 0.00 0.00 0.00
0.04 0.05 0.09 0.23 0.49 0.73 0.86 0.91 0.87 0.78 0.67 0.59 0.52 0.41 0.32 0.22 0.14 0.08 0.03 0.01 0.01 0.00 0.00 0.00 0.00 0.00 0.00 0.00 0.00 0.00 0.00 0.00 0.00 0.00 0.00 0.00 0.00 0.00 0.00 0.00 0.00 0.00 0.00
MSLP
1013.44 1013.05 1012.89 1012.97 1013.23 1013.60 1013.98 1014.29 1014.50 1014.61 1014.65 1014.69 1014.78 1014.96 1015.25 1015.61 1016.01 1016.38 1016.67 1016.87 1016.98 1017.04 1017.07 1017.13 1017.25 1017.43 1017.65 1017.88 1018.09 1018.25 1018.33 1018.34 1018.31 1018.25 1018.20 1018.18 1018.21 1018.27 1018.37 1018.48 1018.59 1018.70 1018.79
1013.04 1012.75 1012.68 1012.85 1013.19 1013.62 1014.05 1014.41 1014.65 1014.78 1014.86 1014.93 1015.06 1015.29 1015.61 1015.99 1016.39 1016.75 1017.02 1017.19 1017.27 1017.30 1017.32 1017.38 1017.49 1017.66 1017.86 1018.07 1018.24 1018.34 1018.38 1018.36 1018.30 1018.23 1018.19 1018.19 1018.24 1018.33 1018.44 1018.56 1018.67 1018.78 1018.88
1012.63 1012.44 1012.48 1012.74 1013.17 1013.66 1014.15 1014.54 1014.82 1014.99 1015.10 1015.21 1015.38 1015.63 1015.96 1016.34 1016.72 1017.04 1017.27 1017.39 1017.44 1017.45 1017.46 1017.51 1017.62 1017.79 1017.97 1018.15 1018.28 1018.34 1018.34 1018.28 1018.21 1018.15 1018.14 1018.17 1018.25 1018.36 1018.50 1018.63 1018.75 1018.86 1018.96
1012.30 1012.22 1012.36 1012.71 1013.21 1013.76 1014.28 1014.70 1015.00 1015.20 1015.33 1015.47 1015.66 1015.93 1016.26 1016.61 1016.94 1017.21 1017.39 1017.47 1017.49 1017.48 1017.50 1017.56 1017.68 1017.85 1018.03 1018.18 1018.27 1018.29 1018.26 1018.19 1018.12 1018.08 1018.09 1018.16 1018.28 1018.42 1018.57 1018.71 1018.84 1018.95 1019.06
1012.14 1012.16 1012.39 1012.80 1013.34 1013.91 1014.44 1014.86 1015.17 1015.37 1015.53 1015.68 1015.88 1016.15 1016.45 1016.77 1017.06 1017.27 1017.39 1017.44 1017.44 1017.44 1017.47 1017.57 1017.71 1017.90 1018.07 1018.20 1018.27 1018.27 1018.21 1018.13 1018.07 1018.05 1018.10 1018.20 1018.35 1018.52 1018.68 1018.83 1018.95 1019.05 1019.16
1012.17 1012.27 1012.56 1013.00 1013.55 1014.11 1014.61 1015.00 1015.29 1015.48 1015.64 1015.80 1016.01 1016.26 1016.55 1016.84 1017.08 1017.25 1017.33 1017.36 1017.36 1017.38 1017.45 1017.58 1017.77 1017.97 1018.15 1018.28 1018.33 1018.31 1018.24 1018.15 1018.10 1018.10 1018.17 1018.30 1018.47 1018.65 1018.82 1018.95 1019.06 1019.16 1019.27
1012.38 1012.53 1012.84 1013.28 1013.80 1014.31 1014.75 1015.09 1015.34 1015.51 1015.66 1015.83 1016.04 1016.30 1016.57 1016.84 1017.05 1017.19 1017.26 1017.28 1017.30 1017.35 1017.47 1017.64 1017.86 1018.10 1018.29 1018.41 1018.45 1018.41 1018.33 1018.24 1018.19 1018.21 1018.30 1018.44 1018.62 1018.79 1018.95 1019.07 1019.16 1019.25 1019.34
1012.67 1012.85 1013.16 1013.57 1014.03 1014.47 1014.83 1015.11 1015.31 1015.45 1015.60 1015.78 1016.01 1016.28 1016.56 1016.82 1017.03 1017.16 1017.22 1017.26 1017.30 1017.38 1017.53 1017.75 1018.00 1018.26 1018.45 1018.57 1018.60 1018.55 1018.46 1018.37 1018.32 1018.35 1018.44 1018.58 1018.75 1018.91 1019.04 1019.14 1019.21 1019.28 1019.37
1012.95 1013.14 1013.44 1013.82 1014.21 1014.57 1014.85 1015.06 1015.22 1015.35 1015.50 1015.70 1015.96 1016.26 1016.56 1016.83 1017.04 1017.18 1017.25 1017.29 1017.35 1017.46 1017.64 1017.88 1018.15 1018.41 1018.61 1018.72 1018.73 1018.68 1018.58 1018.49 1018.45 1018.47 1018.56 1018.70 1018.85 1018.98 1019.09 1019.16 1019.21 1019.26 1019.35
1013.13 1013.34 1013.63 1013.97 1014.30 1014.59 1014.81 1014.97 1015.10 1015.23 1015.40 1015.63 1015.93 1016.27 1016.60 1016.89 1017.12 1017.26 1017.34 1017.39 1017.46 1017.58 1017.76 1018.00 1018.27 1018.52 1018.70 1018.80 1018.81 1018.75 1018.66 1018.57 1018.53 1018.56 1018.64 1018.77 1018.90 1019.01 1019.08 1019.13 1019.16 1019.20 1019.28
1013.17 1013.40 1013.70 1014.02 1014.31 1014.55 1014.74 1014.87 1014.99 1015.13 1015.33 1015.60 1015.94 1016.32 1016.68 1017.00 1017.23 1017.38 1017.46 1017.52 1017.59 1017.70 1017.87 1018.10 1018.34 1018.57 1018.74 1018.82 1018.83 1018.77 1018.69 1018.61 1018.58 1018.61 1018.70 1018.81 1018.92 1019.01 1019.06 1019.08 1019.10 1019.13 1019.21
1013.05 1013.33 1013.64 1013.96 1014.24 1014.47 1014.64 1014.77 1014.90 1015.06 1015.30 1015.61 1015.99 1016.39 1016.78 1017.11 1017.35 1017.51 1017.60 1017.65 1017.72 1017.82 1017.97 1018.17 1018.39 1018.59 1018.73 1018.81 1018.81 1018.77 1018.70 1018.65 1018.63 1018.67 1018.76 1018.86 1018.96 1019.03 1019.06 1019.07 1019.07 1019.09 1019.16
1012.80 1013.13 1013.48 1013.82 1014.11 1014.35 1014.53 1014.68 1014.83 1015.03 1015.29 1015.63 1016.03 1016.44 1016.85 1017.19 1017.44 1017.61 1017.71 1017.78 1017.84 1017.94 1018.08 1018.25 1018.44 1018.61 1018.74 1018.81 1018.83 1018.80 1018.76 1018.73 1018.74 1018.79 1018.87 1018.97 1019.05 1019.11 1019.13 1019.12 1019.10 1019.11 1019.16
1012.47 1012.84 1013.22 1013.59 1013.91 1014.18 1014.39 1014.57 1014.76 1014.98 1015.27 1015.62 1016.02 1016.44 1016.84 1017.19 1017.47 1017.66 1017.79 1017.89 1017.97 1018.08 1018.22 1018.38 1018.56 1018.72 1018.84 1018.91 1018.94 1018.93 1018.91 1018.91 1018.94 1019.00 1019.08 1019.17 1019.24 1019.28 1019.28 1019.26 1019.23 1019.21 1019.23
1012.07 1012.47 1012.89 1013.29 1013.64 1013.95 1014.20 1014.43 1014.65 1014.90 1015.20 1015.55 1015.94 1016.35 1016.75 1017.11 1017.41 1017.65 1017.83 1017.98 1018.12 1018.27 1018.43 1018.61 1018.79 1018.94 1019.07 1019.15 1019.19 1019.21 1019.22 1019.24 1019.28 1019.34 1019.41 1019.48 1019.53 1019.55 1019.54 1019.50 1019.44 1019.39 1019.37
1011.62 1012.03 1012.46 1012.88 1013.28 1013.63 1013.93 1014.21 1014.47 1014.75 1015.05 1015.39 1015.77 1016.17 1016.57 1016.94 1017.29 1017.59 1017.85 1018.09 1018.31 1018.53 1018.74 1018.95 1019.15 1019.32 1019.45 1019.55 1019.61 1019.65 1019.68 1019.71 1019.75 1019.80 1019.86 1019.90 1019.93 1019.92 1019.88 1019.82 1019.74 1019.66 1019.59
1011.10 1011.50 1011.93 1012.38 1012.81 1013.21 1013.59 1013.92 1014.24 1014.54 1014.86 1015.19 1015.55 1015.94 1016.33 1016.74 1017.13 1017.52 1017.88 1018.22 1018.55 1018.85 1019.13 1019.39 1019.62 1019.81 1019.96 1020.08 1020.15 1020.21 1020.25 1020.28 1020.31 1020.35 1020.37 1020.38 1020.37 1020.34 1020.27 1020.18 1020.08 1019.97 1019.86
1010.52 1010.89 1011.31 1011.78 1012.26 1012.73 1013.18 1013.59 1013.97 1014.32 1014.66 1014.99 1015.34 1015.72 1016.13 1016.56 1017.01 1017.48 1017.94 1018.40 1018.82 1019.22 1019.58 1019.89 1020.15 1020.36 1020.53 1020.65 1020.74 1020.81 1020.86 1020.89 1020.91 1020.92 1020.91 1020.88 1020.84 1020.77 1020.68 1020.57 1020.45 1020.32 1020.18
1009.86 1010.21 1010.63 1011.13 1011.67 1012.22 1012.77 1013.27 1013.74 1014.15 1014.52 1014.87 1015.22 1015.60 1016.01 1016.47 1016.98 1017.52 1018.07 1018.62 1019.14 1019.61 1020.02 1020.37 1020.66 1020.89 1021.06 1021.20 1021.30 1021.38 1021.43 1021.46 1021.47 1021.45 1021.41 1021.35 1021.27 1021.17 1021.06 1020.94 1020.81 1020.67 1020.51
1009.19 1009.52 1009.96 1010.49 1011.11 1011.76 1012.42 1013.04 1013.60 1014.10 1014.52 1014.90 1015.26 1015.64 1016.06 1016.53 1017.07 1017.66 1018.27 1018.88 1019.46 1019.98 1020.42 1020.79 1021.09 1021.32 1021.50 1021.64 1021.76 1021.85 1021.91 1021.94 1021.94 1021.91 1021.84 1021.75 1021.64 1021.52 1021.40 1021.27 1021.14 1021.00 1020.84
1008.56 1008.90 1009.36 1009.96 1010.66 1011.43 1012.21 1012.95 1013.63 1014.21 1014.70 1015.11 1015.49 1015.87 1016.28 1016.76 1017.31 1017.91 1018.55 1019.18 1019.78 1020.30 1020.75 1021.11 1021.40 1021.62 1021.80 1021.94 1022.07 1022.18 1022.25 1022.30 1022.30 1022.26 1022.19 1022.07 1021.94 1021.81 1021.67 1021.54 1021.41 1021.28 1021.13
1008.08 1008.44 1008.95 1009.62 1010.41 1011.29 1012.18 1013.05 1013.83 1014.50 1015.05 1015.51 1015.90 1016.28 1016.68 1017.15 1017.68 1018.27 1018.89 1019.50 1020.08 1020.58 1021.00 1021.33 1021.59 1021.79 1021.96 1022.11 1022.25 1022.37 1022.48 1022.54 1022.56 1022.52 1022.43 1022.31 1022.16 1022.00 1021.86 1021.72 1021.60 1021.47 1021.33
1007.85 1008.24 1008.80 1009.53 1010.40 1011.36 1012.36 1013.32 1014.19 1014.94 1015.55 1016.03 1016.43 1016.81 1017.19 1017.63 1018.13 1018.68 1019.26 1019.83 1020.36 1020.81 1021.18 1021.46 1021.68 1021.86 1022.02 1022.17 1022.32 1022.47 1022.60 1022.69 1022.72 1022.69 1022.59 1022.45 1022.29 1022.11 1021.94 1021.80 1021.66 1021.54 1021.40
1007.92 1008.35 1008.95 1009.72 1010.63 1011.65 1012.71 1013.73 1014.66 1015.45 1016.09 1016.59 1017.00 1017.37 1017.73 1018.14 1018.60 1019.10 1019.63 1020.15 1020.61 1021.01 1021.32 1021.56 1021.74 1021.89 1022.03 1022.19 1022.35 1022.52 1022.66 1022.77 1022.81 1022.78 1022.68 1022.53 1022.33 1022.13 1021.93 1021.75 1021.60 1021.45 1021.31
1008.32 1008.77 1009.38 1010.15 1011.08 1012.10 1013.17 1014.20 1015.14 1015.95 1016.60 1017.11 1017.51 1017.87 1018.22 1018.60 1019.03 1019.49 1019.97 1020.44 1020.85 1021.19 1021.46 1021.65 1021.80 1021.93 1022.06 1022.21 1022.38 1022.55 1022.71 1022.82 1022.87 1022.83 1022.71 1022.53 1022.30 1022.06 1021.82 1021.60 1021.40 1021.22 1021.05
1009.00 1009.45 1010.04 1010.79 1011.67 1012.65 1013.68 1014.67 1015.59 1016.37 1017.00 1017.51 1017.91 1018.26 1018.60 1018.96 1019.37 1019.81 1020.26 1020.69 1021.07 1021.38 1021.61 1021.77 1021.90 1022.01 1022.13 1022.27 1022.44 1022.61 1022.76 1022.87 1022.89 1022.84 1022.69 1022.47 1022.20 1021.91 1021.62 1021.34 1021.10 1020.87 1020.65
Thickness
5777 5777 5774 5771 5770 5768 5766 5765 5765 5764 5763 5762 5760 5759 5758 5756 5754 5753 5752 5751 5750 5749 5748 5747 5746 5745 5745 5745 5744 5743 5742 5742 5742 5742 5743 5743 5744 5744 5744 5744 5742 5741 5740
5782 5777 5773 5770 5768 5766 5764 5762 5761 5759 5758 5756 5755 5754 5753 5751 5749 5747 5746 5746 5745 5745 5744 5743 5742 5742 5742 5741 5741 5740 5739 5739 5739 5739 5739 5739 5739 5740 5740 5739 5738 5737 5736
5781 5776 5772 5769 5766 5764 5761 5759 5757 5755 5753 5751 5750 5748 5747 5746 5745 5743 5742 5741 5741 5741 5740 5739 5739 5739 5738 5738 5738 5738 5737 5736 5736 5736 5735 5735 5735 5736 5736 5735 5734 5733 5731
5780 5775 5771 5768 5764 5761 5759 5756 5754 5752 5749 5747 5745 5744 5743 5742 5741 5740 5739 5738 5737 5737 5737 5736 5735 5735 5735 5735 5735 5734 5733 5733 5733 5733 5732 5731 5732 5731 5731 5730 5729 5728 5727
5778 5774 5770 5766 5763 5760 5757 5754 5751 5749 5746 5744 5742 5740 5739 5738 5737 5736 5736 5735 5735 5734 5734 5733 5732 5731 5731 5731 5731 5731 5730 5730 5730 5730 5729 5728 5728 5727 5726 5725 5724 5724 5722
5777 5774 5770 5765 5762 5759 5755 5753 5750 5747 5743 5741 5739 5737 5736 5736 5735 5734 5733 5733 5732 5731 5730 5729 5728 5727 5728 5728 5728 5727 5727 5727 5727 5726 5725 5724 5723 5723 5722 5721 5720 5719 5717
5777 5774 5769 5765 5761 5758 5754 5751 5749 5746 5743 5740 5737 5735 5734 5734 5733 5732 5731 5730 5729 5728 5727 5725 5724 5724 5724 5725 5724 5724 5724 5723 5723 5722 5720 5720 5719 5718 5717 5716 5715 5714 5713
5777 5772 5768 5764 5760 5757 5754 5750 5747 5745 5742 5740 5737 5735 5733 5732 5731 5730 5729 5728 5726 5725 5724 5722 5721 5720 5720 5721 5721 5720 5720 5719 5718 5717 5716 5715 5714 5713 5712 5711 5710 5709 5708
5775 5770 5766 5763 5759 5756 5753 5750 5747 5744 5742 5740 5737 5735 5733 5731 5730 5729 5727 5726 5725 5723 5721 5720 5718 5716 5717 5717 5716 5715 5715 5715 5714 5713 5711 5710 5709 5708 5707 5706 5705 5704 5703
5773 5769 5765 5762 5759 5755 5752 5749 5747 5744 5741 5739 5737 5735 5733 5731 5729 5727 5726 5724 5722 5721 5719 5717 5714 5713 5712 5712 5711 5711 5710 5710 5710 5709 5708 5706 5705 5704 5702 5701 5700 5699 5698
5771 5768 5765 5762 5759 5756 5752 5749 5746 5743 5741 5738 5736 5733 5731 5729 5727 5725 5723 5721 5719 5717 5715 5713 5711 5709 5708 5707 5707 5707 5706 5705 5705 5705 5704 5703 5701 5700 5698 5697 5695 5694 5693
5771 5769 5766 5764 5761 5757 5753 5750 5746 5743 5740 5736 5734 5731 5729 5727 5725 5722 5720 5718 5716 5713 5711 5709 5707 5706 5705 5704 5703 5703 5702 5701 5700 5699 5698 5697 5696 5694 5692 5690 5689 5688 5687
5776 5772 5769 5766 5763 5759 5756 5751 5747 5743 5739 5736 5732 5729 5727 5724 5721 5719 5717 5715 5713 5711 5708 5707 5704 5703 5701 5701 5700 5699 5698 5698 5696 5695 5693 5692 5690 5688 5686 5685 5683 5681 5680
5777 5774 5772 5769 5765 5761 5758 5753 5749 5744 5740 5736 5732 5728 5724 5721 5718 5716 5713 5711 5709 5707 5705 5703 5701 5698 5697 5696 5695 5693 5692 5692 5691 5690 5688 5686 5684 5683 5681 5680 5678 5676 5675
5778 5776 5773 5770 5766 5763 5758 5754 5749 5745 5741 5736 5732 5727 5723 5720 5717 5714 5711 5708 5705 5703 5701 5699 5696 5693 5691 5690 5688 5686 5685 5684 5683 5682 5681 5679 5678 5677 5675 5674 5673 5671 5669
5782 5778 5775 5770 5767 5763 5758 5754 5749 5744 5740 5735 5731 5727 5722 5719 5716 5713 5709 5705 5702 5699 5697 5694 5690 5687 5684 5682 5680 5678 5677 5676 5675 5674 5673 5671 5669 5668 5667 5666 5664 5663 5661
5785 5781 5776 5772 5766 5762 5757 5752 5746 5741 5737 5732 5728 5724 5720 5716 5713 5710 5705 5701 5696 5693 5690 5686 5683 5680 5677 5674 5671 5669 5668 5668 5666 5665 5663 5661 5659 5657 5656 5655 5654 5652 5651
5786 5781 5776 5772 5766 5760 5754 5749 5744 5738 5732 5728 5723 5719 5715 5711 5708 5704 5699 5693 5689 5685 5681 5677 5673 5669 5666 5663 5661 5659 5658 5657 5655 5652 5650 5648 5646 5643 5641 5640 5639 5639 5638
5789 5782 5775 5770 5764 5757 5751 5746 5741 5735 5728 5722 5717 5714 5709 5705 5700 5695 5688 5682 5679 5674 5669 5666 5661 5659 5655 5653 5651 5647 5645 5643 5641 5639 5636 5633 5631 5629 5626 5624 5623 5623 5622
5789 5783 5776 5768 5761 5753 5746 5740 5734 5727 5720 5714 5709 5706 5702 5696 5690 5684 5677 5671 5667 5662 5657 5654 5651 5648 5645 5643 5641 5635 5631 5628 5626 5624 5622 5619 5617 5614 5612 5610 5608 5607 5605
5787 5781 5775 5766 5758 5749 5740 5733 5724 5714 5708 5702 5699 5695 5692 5686 5680 5674 5667 5662 5658 5652 5647 5645 5642 5638 5634 5632 5630 5625 5619 5616 5613 5610 5608 5605 5602 5600 5597 5595 5593 5591 5589
5786 5779 5772 5764 5755 5746 5738 5728 5719 5708 5699 5692 5686 5683 5680 5675 5670 5665 5660 5655 5649 5643 5638 5635 5633 5628 5622 5620 5619 5615 5609 5605 5601 5597 5594 5591 5588 5585 5583 5580 5577 5575 5573
5781 5777 5770 5761 5751 5742 5732 5719 5709 5698 5689 5680 5675 5673 5670 5666 5662 5657 5652 5646 5639 5634 5628 5625 5623 5619 5613 5608 5605 5602 5598 5595 5587 5584 5581 5577 5573 5570 5567 5565 5563 5560 5558
5778 5773 5765 5755 5745 5735 5726 5715 5703 5691 5679 5672 5667 5662 5659 5656 5652 5647 5642 5635 5629 5624 5620 5616 5612 5608 5604 5599 5593 5587 5583 5578 5574 5571 5568 5563 5559 5556 5553 5551 5548 5545 5542
5769 5763 5756 5746 5736 5726 5717 5707 5696 5685 5673 5664 5658 5653 5649 5646 5641 5637 5633 5627 5621 5616 5611 5606 5601 5597 5593 5587 5581 5575 5568 5561 5557 5555 5554 5551 5546 5542 5539 5536 5533 5530 5528
5755 5751 5744 5736 5724 5714 5704 5693 5684 5675 5665 5656 5649 5644 5639 5636 5632 5628 5623 5618 5612 5606 5601 5596 5590 5585 5580 5574 5568 5562 5556 5551 5546 5540 5538 5539 5539 5536 5528 5522 5518 5515 5513